Weather History for KFOZ - December, 2012

Change the Weather History Date:

Tuesday, December 4, 2012

  Actual Average (KGPZ) Record (KGPZ)
Temperature  
Mean Temperature 14 °F -  
Max Temperature 21 °F 25 °F 53 °F (1962)
Min Temperature 6 °F 6 °F -20 °F (1985)
Degree Days  
Heating Degree Days 52    
Moisture  
Dew Point 6 °F    
Average Humidity 74    
Maximum Humidity 92    
Minimum Humidity 63    
Precipitation  
Precipitation 0.00 in - - ()
Sea Level Pressure  
Sea Level Pressure 30.11 in    
Wind  
Wind Speed 8 mph (West)    
Max Wind Speed 15 mph    
Max Gust Speed 30 mph    
Visibility 9 miles    
Events Snow    
Averages and records for this station are not official NWS values.
T = Trace of Precipitation, MM = Missing Value Source: NWS Daily Summary

Daily Weather History Graph

Daily Weather History Graph

Search for Another Location

Airport or City:

Trip Planner

Search our weather history database for the weather conditions in past years. The results will help you decide how hot, cold, wet, or windy it might be!

Date:

Astronomy

Dec. 04, 2012 Rise Set
Actual Time 7:46 AM CST 4:23 PM CST
Civil Twilight 7:11 AM CST 4:58 PM CST
Nautical Twilight 6:32 AM CST 5:37 PM CST
Astronomical Twilight 5:54 AM CST 6:15 PM CST
Moon 10:28 PM CST (12/4) 11:25 AM CST (12/4)
Length of Visible Light 9h 47m
Length of Day
8h 36m
Waning Gibbous, 69% of the Moon is Illuminated
Dec 4
Waning Gibbous
Dec 6
Last Quarter
Dec 13
New
Dec 19
First Quarter
Dec 28
Full

Hourly Weather History & Observations

Time (CST) Temp. Windchill Dew Point Humidity Pressure Visibility Wind Dir Wind Speed Gust Speed Precip Events Conditions
12:13 AM 21.2 °F 7.8 °F 12.2 °F 68% 29.78 in 10.0 mi West 15.0 mph 29.9 mph N/A   Scattered Clouds
12:33 AM 19.4 °F 8.6 °F 10.4 °F 68% 29.78 in 10.0 mi West 9.2 mph 17.3 mph N/A   Clear
12:53 AM 19.4 °F 8.6 °F 10.4 °F 68% 29.80 in 10.0 mi West 9.2 mph 18.4 mph N/A   Scattered Clouds
1:13 AM 19.4 °F 6.6 °F 10.4 °F 68% 29.82 in 10.0 mi West 12.7 mph 23.0 mph N/A Snow Light Snow
1:33 AM 19.4 °F 7.9 °F 10.4 °F 68% 29.83 in 10.0 mi West 10.4 mph 20.7 mph N/A Snow Light Snow
1:53 AM 19.4 °F 10.4 °F 10.4 °F 68% 29.84 in 7.0 mi West 6.9 mph 24.2 mph N/A Snow Light Snow
2:13 AM 15.8 °F 2.1 °F 8.6 °F 73% 29.86 in 10.0 mi West 12.7 mph 26.5 mph N/A   Scattered Clouds
2:33 AM 15.8 °F 2.7 °F 6.8 °F 68% 29.87 in 10.0 mi West 11.5 mph 23.0 mph N/A   Clear
2:53 AM 15.8 °F 2.1 °F 6.8 °F 68% 29.87 in 10.0 mi West 12.7 mph 20.7 mph N/A   Clear
3:13 AM 15.8 °F 1.4 °F 6.8 °F 68% 29.88 in 10.0 mi West 13.8 mph 20.7 mph N/A   Clear
3:33 AM 14.0 °F 1.2 °F 6.8 °F 73% 29.90 in 10.0 mi West 10.4 mph 18.4 mph N/A   Clear
3:53 AM 14.0 °F 2.0 °F 5.0 °F 67% 29.90 in 10.0 mi West 9.2 mph 17.3 mph N/A   Clear
4:14 AM 12.2 °F 2.9 °F 5.0 °F 73% 29.90 in 10.0 mi West 5.8 mph - N/A   Clear
4:33 AM 12.2 °F 0.7 °F 5.0 °F 73% 29.92 in 10.0 mi West 8.1 mph - N/A   Clear
4:53 AM 12.2 °F 0.7 °F 5.0 °F 73% 29.93 in 10.0 mi West 8.1 mph - N/A   Clear
5:13 AM 12.2 °F -1.8 °F 5.0 °F 73% 29.94 in 10.0 mi West 11.5 mph 18.4 mph N/A   Clear
5:33 AM 12.2 °F -1.0 °F 3.2 °F 67% 29.94 in 10.0 mi West 10.4 mph 16.1 mph N/A   Clear
5:53 AM 12.2 °F 0.7 °F 3.2 °F 67% 29.96 in 10.0 mi West 8.1 mph 16.1 mph N/A   Clear
6:13 AM 10.4 °F -2.4 °F 3.2 °F 73% 29.96 in 10.0 mi West 9.2 mph 16.1 mph N/A   Clear
6:33 AM 10.4 °F -2.4 °F 3.2 °F 73% 29.97 in 10.0 mi West 9.2 mph - N/A   Clear
6:53 AM 10.4 °F -2.4 °F 3.2 °F 73% 29.98 in 10.0 mi West 9.2 mph - N/A   Clear
7:13 AM 10.4 °F -0.4 °F 3.2 °F 73% 29.99 in 10.0 mi West 6.9 mph - N/A   Clear
7:53 AM 10.4 °F -1.5 °F 3.2 °F 73% 30.01 in 10.0 mi West 8.1 mph - N/A   Clear
8:13 AM 10.4 °F -1.5 °F 3.2 °F 73% 30.03 in 10.0 mi West 8.1 mph - N/A Snow Light Snow
8:33 AM 10.4 °F 0.8 °F 3.2 °F 73% 30.04 in 10.0 mi West 5.8 mph - N/A Snow Light Snow
8:53 AM 10.4 °F 0.8 °F 3.2 °F 73% 30.05 in 7.0 mi West 5.8 mph - N/A Snow Light Snow
9:13 AM 10.4 °F -0.4 °F 3.2 °F 73% 30.06 in 5.0 mi West 6.9 mph 16.1 mph N/A Snow Light Snow
9:33 AM 12.2 °F 0.7 °F 5.0 °F 73% 30.07 in 5.0 mi West 8.1 mph - N/A Snow Light Snow
9:53 AM 12.2 °F -1.0 °F 5.0 °F 73% 30.08 in 5.0 mi West 10.4 mph 18.4 mph N/A Snow Light Snow
10:13 AM 12.2 °F 0.7 °F 6.8 °F 79% 30.09 in 5.0 mi West 8.1 mph - N/A Snow Light Snow
10:33 AM 12.2 °F -0.2 °F 6.8 °F 79% 30.11 in 4.0 mi West 9.2 mph - N/A Snow Light Snow
10:53 AM 14.0 °F 2.9 °F 6.8 °F 73% 30.11 in 4.0 mi WNW 8.1 mph - N/A Snow Light Snow
11:13 AM 14.0 °F 2.9 °F 6.8 °F 73% 30.12 in 5.0 mi West 8.1 mph 16.1 mph N/A Snow Light Snow
11:33 AM 14.0 °F 2.9 °F 6.8 °F 73% 30.13 in 5.0 mi WNW 8.1 mph 18.4 mph N/A Snow Light Snow
12:13 PM 15.8 °F 4.2 °F 6.8 °F 68% 30.14 in 7.0 mi West 9.2 mph 17.3 mph N/A Snow Light Snow
12:33 PM 17.6 °F 5.0 °F 8.6 °F 68% 30.14 in 10.0 mi WNW 11.5 mph 18.4 mph N/A Snow Light Snow
12:53 PM 17.6 °F 7.3 °F 8.6 °F 68% 30.15 in 10.0 mi West 8.1 mph 17.3 mph N/A Snow Light Snow
1:13 PM 17.6 °F 6.4 °F 8.6 °F 68% 30.16 in 10.0 mi West 9.2 mph - N/A Snow Light Snow
1:33 PM 19.4 °F 9.5 °F 8.6 °F 63% 30.17 in 10.0 mi West 8.1 mph - N/A Snow Light Snow
1:53 PM 19.4 °F 8.6 °F 8.6 °F 63% 30.18 in 10.0 mi West 9.2 mph 17.3 mph N/A   Mostly Cloudy
2:13 PM 19.4 °F 14.3 °F 8.6 °F 63% 30.18 in 10.0 mi West 3.5 mph - N/A   Scattered Clouds
2:33 PM 19.4 °F 11.5 °F 8.6 °F 63% 30.19 in 10.0 mi WNW 5.8 mph - N/A Snow Light Snow
2:53 PM 19.4 °F 9.5 °F 8.6 °F 63% 30.19 in 10.0 mi West 8.1 mph - N/A   Scattered Clouds
3:13 PM 19.4 °F 11.5 °F 8.6 °F 63% 30.20 in 10.0 mi WNW 5.8 mph - N/A   Clear
3:33 PM 19.4 °F 11.5 °F 8.6 °F 63% 30.21 in 10.0 mi WNW 5.8 mph - N/A   Clear
3:53 PM 19.4 °F 12.8 °F 8.6 °F 63% 30.22 in 10.0 mi WNW 4.6 mph - N/A   Clear
4:13 PM 17.6 °F 12.3 °F 8.6 °F 68% 30.23 in 10.0 mi West 3.5 mph - N/A   Clear
4:53 PM 15.8 °F - 8.6 °F 73% 30.26 in 10.0 mi Calm Calm - N/A   Clear
5:13 PM 15.8 °F - 8.6 °F 73% 30.27 in 10.0 mi Calm Calm - N/A   Clear
5:33 PM 15.8 °F - 8.6 °F 73% 30.27 in 10.0 mi Calm Calm - N/A   Clear
5:53 PM 12.2 °F - 6.8 °F 79% 30.28 in 10.0 mi Calm Calm - N/A   Clear
6:13 PM 10.4 °F - 6.8 °F 85% 30.30 in 10.0 mi Calm Calm - N/A   Clear
6:33 PM 12.2 °F - 8.6 °F 85% 30.31 in 10.0 mi Calm Calm - N/A   Mostly Cloudy
6:53 PM 10.4 °F - 6.8 °F 85% 30.31 in 7.0 mi Calm Calm - N/A Snow Light Snow
7:13 PM 10.4 °F - 6.8 °F 85% 30.32 in 7.0 mi Calm Calm - N/A Snow Light Snow
7:33 PM 8.6 °F - 6.8 °F 92% 30.33 in 10.0 mi Calm Calm - N/A   Mostly Cloudy
7:53 PM 10.4 °F - 6.8 °F 85% 30.33 in 7.0 mi Calm Calm - N/A   Mostly Cloudy
8:13 PM 10.4 °F - 6.8 °F 85% 30.33 in 10.0 mi Calm Calm - N/A   Overcast
8:33 PM 10.4 °F - 6.8 °F 85% 30.32 in 10.0 mi Calm Calm - N/A   Mostly Cloudy
8:53 PM 10.4 °F - 6.8 °F 85% 30.31 in 10.0 mi Calm Calm - N/A Snow Light Snow
9:13 PM 8.6 °F - 6.8 °F 92% 30.31 in 10.0 mi Calm Calm - N/A   Clear
9:33 PM 8.6 °F - 5.0 °F 85% 30.32 in 10.0 mi Calm Calm - N/A   Clear
9:53 PM 6.8 °F - 3.2 °F 85% 30.32 in 10.0 mi Calm Calm - N/A   Clear
10:13 PM 6.8 °F - 3.2 °F 85% 30.33 in 10.0 mi Calm Calm - N/A   Clear
10:33 PM 6.8 °F - 3.2 °F 85% 30.34 in 10.0 mi Calm Calm - N/A   Clear
10:53 PM 6.8 °F - 3.2 °F 85% 30.35 in 10.0 mi Calm Calm - N/A   Clear
11:13 PM 6.8 °F - 3.2 °F 85% 30.38 in 10.0 mi Calm Calm - N/A   Mostly Cloudy
11:33 PM 8.6 °F - 3.2 °F 79% 30.37 in 10.0 mi Calm Calm - N/A   Mostly Cloudy
11:53 PM 8.6 °F - 3.2 °F 79% 30.37 in 5.0 mi Calm Calm - N/A   Scattered Clouds